Погода Готня

Погода Готня : погода сейчас, прогноз погоды и архив. Всё, что Вы хотите узнать о погоде Готня!

Поиск расширенной информации на нашем сайте:

Другие новости

Новости СМИ2

Главная страница сайта

Новости сайта

02.10.2013

Напоминаем, что на нашем новом сайте вы можете получить высокодетализированные прогнозы погоды по пунктам России, СНГ и мира (включающие важные для авиации метеовеличины, такие как направление и скорость ветра, видимость, явления погоды, количество и форма облачности, нижняя и верхняя граница облачности), а также ознакомиться с разнообразными материалами по авиационной метеорологии и подборкой полезных ссылок на эту тему.

Сайт Метеоцентр.Азия посвящён разработке технологий оптимизации авиаметеорологического обслуживания, включая проектирование и перспективное создание нескольких автоматизированных авиаметеорологических систем:
- система выпуска высокодетальных прогностических карт явлений погоды для нижнего воздушного пространства по России и ближнему зарубежью;
- система верификации прогнозов TAF (выпускаемых синоптиками официальных АМСГ РФ и ближнего зарубежья) и AUTOTAF (выпускаемых сайтом Метеоцентр.Азия) - выявление ошибок, онлайн-сопоставление с фактической погодой METAR, автоматическое внесение коррективов в прогнозы при резком отклонении фактической погоды от прогноза, подсчёт оправдываемости прогнозов по элементам и в целом;
- система обработки, анализа и отображения авиаметеорологической информации для применения провайдерами метеорологической информации.

Рекомендуем: Смотрите надежная летняя резина на продажу закажите.

Погода Готня - сегодня

Время (UTC), дата Ветер
(°,м/с) 
Видим.   Явления Облачность Т
(°С)
Тd
(°С)
f(%) Тe
(°С)
Pmin
(гПа)
dP
(гПа)
Po
(мм)
O2
(г/м3)
Тmin Tmax R s Состояние
почвы
09 26.04.17 200 (Ю) 8-16{17}  20000 м    3/0 верхняя 
[Ci fib]
+13.9 -1.7 34 +13  1022  0.6  746  286           
12 26.04.17 200 (Ю) 7-15{17}  20000 м    4/0 верхняя 
[Ci fib]
+16.4 -0.2 32 +16  1020.9  -0.9  746  283           
15 26.04.17 200 (Ю) 7-12{15}  20000 м    4/0 верхняя 
[Ci fib]
+15.9 -1.2 31 +15  1020.1  -0.8  745  284           
18 26.04.17 190 (Ю) 4{14}  10 км    6/0 верхняя 
[Ci fib]
+12 -0.2 43 +11  1020.8  0.3  745  288    +16.8       
21 26.04.17 200 (Ю) 10 км    ясно 
+9.5 -0.2 51 +8  1021.6  0.5  746  290           
00 27.04.17 190 (Ю) 10 км    ясно 
+7.6 +0.6 61 +6  1021.7  -0.1  746  292           
03 27.04.17 190 (Ю) 20000 м    4/0 верхняя 
[Ci ing]
+5.7 -1.6 59 +4  1021.8  -0.1  746  294  +5.6         
06 27.04.17 190 (Ю) 5{10}  20000 м    6/0 верхняя 
[Ci ing]
+10.7 -0.5 46 +10  1021.8  0.5  746  289  +5.6         
09 27.04.17 200 (Ю) 6-11{13}  20000 м    3/0 верхняя 
[Ci ing]
+17.5 -3.8 23 +17  1020.6  -0.6  745  283           
12 27.04.17 210 (ЮЗ) 7-13{13}  20000 м    6/0 верхняя 
[Ci fib]
+20.4 -6 16 +20  1019.4  -0.8  745  280           
15 27.04.17 200 (Ю) 5{13}  20000 м    8/0 верхняя 
[Ci fib]
+20 -6 17 +20  1018.4  -1  744  280           
18 27.04.17 210 (ЮЗ) 10 км    8/0 верхняя 
[Ci fib]
+15.5 -2.7 28 +16  1019.5  0.6  745  284    +20.7       
21 27.04.17 200 (Ю) 10 км    ясно 
+14.1 +0 38 +14  1020  0.4  745  285           
00 28.04.17 210 (ЮЗ) 10 км    ясно 
+11.2 +0.6 48 +11  1020.3  0.1  745  288           
03 28.04.17 170 (Ю) 20000 м    ясно 
+7.2 +0.9 64 +7  1021.3  0.5  745  292  +7         
06 28.04.17 200 (Ю) 20000 м    3/0 верхняя 
[Ci fib]
+15.5 -1.2 32 +15  1020.8  0.3  746  284  +7         
09 28.04.17 180 (Ю) 20000 м    3/0 верхняя 
[Ci fib]
+20.6 -2.2 21 +21  1020.1  -0.3  745  279           
12 28.04.17 170 (Ю) 20000 м    4/0 верхняя 
[Ci fib]
+22.7 -4.1 16 +23  1018.5  -1.3  744  277           
15 28.04.17 190 (Ю) 20000 м    8/0 верхняя 
[Ci fib]
+21.8 -3.8 18 +22  1017.5  -1.1  743  278           
18 28.04.17 150 (ЮВ) 10 км    3/0 верхняя 
[Ci fib]
+17 +0.4 32 +18  1017.7  -0.2  743  282    +23.2       
21 28.04.17 150 (ЮВ) 10 км    ясно 
+14.9 +0 36 +16  1017.5  -0.4  743  284           
00 29.04.17 160 (Ю) 10 км    ясно 
+10.9 +4.1 63 +12  1017.9  0.1  743  287           
03 29.04.17 170 (Ю) 20000 м    3/0 верхняя 
[Ci fib]
+9.4 +3.6 67 +10  1017.9  -0.2  743  289  +9         
06 29.04.17 170 (Ю) 20000 м    ясно 
+16.9 +5 45 +17  1017.4  0.2  743  281  +9         
09 29.04.17 160 (Ю) 20000 м    3/3 600 м 
[Cu hum]
+21.8 +2.9 29 +22  1016.7  -0.2  743  277           
Время (UTC), дата Ветер
(°,м/с) 
Видим.   Явления Облачность Т
(°С)
Тd
(°С)
f(%) Тe
(°С)
Pmin
(гПа)
dP
(гПа)
Po
(мм)
O2
(г/м3)
Тmin Tmax R s Состояние
почвы

Для получения пояснительной информации подведите курсор к названию столбца.

ПОГОДА Готня - архив

Всё, что Вы хотите узнать о погоде Готня - удобно и подробно!

Выберите нужную дату (начиная с 1 января 2015* года) и нажмите кнопку "Найти".
Будут отображены архивные сводки погоды по пункту Готня, начиная с указанной даты.


Отображать данные в формате CSV (для использования в таблицах Excel)


Внимание! Наш архив погоды предназначен исключительно для личного некоммерческого использования в познавательных целях. Если Вам необходимы официальные справки о состоянии погоды (для производственных, юридических, коммерческих и т.п. целей), обращайтесь в органы Росгидромета.

*Примечание: данная дата относится к архиву по метеостанциям СССР (Россия, СНГ, Балтия).
Архив по метеостанциям Зарубежной Европы и Азии (кроме Китая) хранится 10 дней, по другим регионам земного шара (Китай, Африка, Америка, Австралия, Океания) - 1 день.

Готня - район местоположения метеостанции


Название, широта, долгота, высота метеостанции:
Готня 50.8°ш. 35.8°д. 226 м над ур. моря [Российская Федерация]

Дополнительная информация

В oтличие oт бoльшинства пoгoдных сайтoв мы публикуем пoдрoбную метеoинфoрмацию в детальнoм прoфессиoнальнoм фoрмате.

Характеристики температуры и влажнoсти вoздуха измеряются на высoте 2 м в тени вдали oт зданий и деревьев.
Скoрoсть ветра измеряется на высoте 10 м (на урoвне рoста челoвека скoрoсть ветра ниже в 1.5-2 раза). Если метеoстанция нахoдится в гoрoде или в лесу, тo скoрoсть ветра занижена на 2-4 м/с пo сравнению с oткрытым местoм. Скoрoсть ветра над акватoриями крупных рек и oзёр, а также на вершинах хoлмoв на 2-5 м/с выше, чем в oбычных услoвиях.
Атмoсфернoе давление в разных тoчках местнoсти мoжет значительнo oтличаться oт давления на метеoстанции, в зависимoсти oт услoвий рельефа (при пoдъёме на 10 м давление пoнижается примернo на 1 мм рт.ст.).